Мадрид, метеограме

Мадрид: време по сату
Среда, 21 Априла
Време Падавине Температура Осећа се Притисак Влажност Ветар
20:00 0.06 мм +12° +12° 702.000 мм.ж.с 72% 4 м/с, ЈЗ
21:00 0.06 мм +10.8° +11.1° 702.000 мм.ж.с 80% 3 м/с, ЈЗ
22:00 0.06 мм +10.5° +10.8° 702.000 мм.ж.с 82% 3 м/с, ЈЗ
23:00 0.06 мм +10.2° +10.6° 702.000 мм.ж.с 85% 3 м/с, ЈЗ
Четвтак, 22 Априла
Време Падавине Температура Осећа се Притисак Влажност Ветар
00:00 0.06 мм +9.9° +10.3° 702.000 мм.ж.с 87% 3 м/с, ЈЗ
01:00 0.53 мм +9.8° +10.2° 702.000 мм.ж.с 89% 3 м/с, ЈЗ
02:00 0.53 мм +9.7° +10.2° 702.000 мм.ж.с 90% 3 м/с, ЈЗ
03:00 0.53 мм +9.6° +10.1° 701.000 мм.ж.с 92% 3 м/с, ЈЗ
04:00 0.53 мм +9.6° +10° 702.000 мм.ж.с 92% 3 м/с, ЈЗ
05:00 0.53 мм +9.5° +9.9° 702.000 мм.ж.с 92% 2 м/с, ЈЗ
06:00 0.53 мм +9.4° +9.9° 702.000 мм.ж.с 92% 2 м/с, ЈЗ
07:00 0.24 мм +10° +10.4° 702.000 мм.ж.с 88% 2 м/с, З
08:00 0.24 мм +10.6° +11° 703.000 мм.ж.с 84% 2 м/с, З
09:00 0.24 мм +11.2° +11.5° 703.000 мм.ж.с 80% 2 м/с, З
10:00 0.27 мм +12° +12.2° 703.000 мм.ж.с 75% 2 м/с, З
11:00 0.27 мм +12.9° +13° 703.000 мм.ж.с 70% 2 м/с, СЗ
12:00 0.27 мм +13.7° +13.7° 703.000 мм.ж.с 65% 2 м/с, СЗ
13:00 0.22 мм +14.4° +14.3° 703.000 мм.ж.с 61% 2 м/с, СЗ
14:00 0.22 мм +15.1° +14.9° 703.000 мм.ж.с 58% 2 м/с, СЗ
15:00 0.22 мм +15.8° +15.5° 703.000 мм.ж.с 55% 2 м/с, С
16:00 0.25 мм +15.4° +15.2° 703.000 мм.ж.с 58% 2 м/с, С
17:00 0.25 мм +15° +14.8° 704.000 мм.ж.с 60% 2 м/с, СИ
18:00 0.25 мм +14.6° +14.5° 704.000 мм.ж.с 63% 2 м/с, СИ
19:00 0.03 мм +13.3° +13.3° 704.000 мм.ж.с 67% 2 м/с, СИ
20:00 0.03 мм +12.1° +12.2° 705.000 мм.ж.с 72% 3 м/с, СИ
21:00 0.03 мм +10.9° +11° 705.000 мм.ж.с 76% 3 м/с, СИ
22:00 0 мм +10.5° +10.6° 705.000 мм.ж.с 77% 3 м/с, СИ
23:00 0 мм +10.1° +10.2° 705.000 мм.ж.с 79% 2 м/с, СИ
Петак, 23 Априла
Време Падавине Температура Осећа се Притисак Влажност Ветар
00:00 0 мм +9.7° +9.8° 705.000 мм.ж.с 80% 2 м/с, СИ
01:00 0 мм +9.3° +9.5° 705.000 мм.ж.с 81% 2 м/с, СИ
02:00 0 мм +9° +9.1° 705.000 мм.ж.с 82% 2 м/с, СИ
03:00 0 мм +8.6° +8.8° 705.000 мм.ж.с 83% 2 м/с, СИ
04:00 0 мм +8.6° +8.8° 705.000 мм.ж.с 85% 2 м/с, СИ
05:00 0 мм +8.5° +8.8° 706.000 мм.ж.с 86% 2 м/с, СИ
06:00 0 мм +8.5° +8.7° 706.000 мм.ж.с 87% 2 м/с, И
07:00 0 мм +9.9° +10.2° 706.000 мм.ж.с 82% 3 м/с, И
08:00 0 мм +11.4° +11.6° 706.000 мм.ж.с 76% 3 м/с, И
09:00 0 мм +12.9° +13° 707.000 мм.ж.с 71% 3 м/с, ЈИ
10:00 0.01 мм +14.1° +14.1° 707.000 мм.ж.с 66% 3 м/с, ЈИ
11:00 0.01 мм +15.3° +15.2° 707.000 мм.ж.с 60% 3 м/с, ЈИ
12:00 0.01 мм +16.5° +16.3° 706.000 мм.ж.с 55% 3 м/с, ЈИ
13:00 0.01 мм +17.3° +16.9° 706.000 мм.ж.с 51% 4 м/с, ЈИ
14:00 0.01 мм +18.1° +17.6° 706.000 мм.ж.с 48% 4 м/с, ЈИ
15:00 0.01 мм +18.8° +18.3° 706.000 мм.ж.с 45% 4 м/с, ЈИ
16:00 0 мм +18.5° +18° 706.000 мм.ж.с 46% 4 м/с, ЈИ
17:00 0 мм +18.1° +17.7° 705.000 мм.ж.с 48% 5 м/с, ЈИ
18:00 0 мм +17.8° +17.4° 705.000 мм.ж.с 50% 5 м/с, ЈИ
19:00 0 мм +16.3° +16.1° 706.000 мм.ж.с 56% 5 м/с, ЈИ

Такође

Meteograms hourly weather Мапе времена Преглед времена
Meteograms hourly weather Мапе времена Преглед времена
 
Време у Србији:
О проjекту
© meteoprog.rs 2003-2021.
Meteoprog.ua - погода в Украине 0.0413
sitemap